Time,TemperatureF,DewpointF,PressureIn,WindDirection,WindDirectionDegrees,WindSpeedMPH,WindSpeedGustMPH,Humidity,HourlyPrecipIn,Conditions,Clouds,dailyrainin,SoftwareType,DateUTC
2013-05-15 00:01:00,36.6,31.9,30.02,South,170,0.0,0.0,83,0.00,,,0.00,Wunderground v.1.15,2013-05-15 04:01:00,
2013-05-15 00:03:00,36.6,31.9,30.02,South,170,0.0,0.0,83,0.00,,,0.00,Wunderground v.1.15,2013-05-15 04:03:00,
2013-05-15 00:06:00,36.6,31.9,30.02,South,170,0.0,0.0,83,0.00,,,0.00,Wunderground v.1.15,2013-05-15 04:06:00,
2013-05-15 00:08:00,36.6,31.9,30.02,South,170,0.0,0.0,83,0.00,,,0.00,Wunderground v.1.15,2013-05-15 04:08:00,
2013-05-15 00:13:00,36.6,31.9,30.03,South,170,0.0,0.0,83,0.00,,,0.00,Wunderground v.1.15,2013-05-15 04:13:00,
2013-05-15 00:18:00,36.6,31.9,30.03,South,170,0.0,0.0,83,0.00,,,0.00,Wunderground v.1.15,2013-05-15 04:18:00,
2013-05-15 00:23:00,36.6,31.9,30.03,South,170,0.0,0.0,83,0.00,,,0.00,Wunderground v.1.15,2013-05-15 04:23:00,
2013-05-15 00:29:00,36.5,31.5,30.03,South,170,0.0,0.0,82,0.00,,,0.00,Wunderground v.1.15,2013-05-15 04:29:00,
2013-05-15 00:34:00,36.5,31.8,30.03,South,170,0.0,0.0,83,0.00,,,0.00,Wunderground v.1.15,2013-05-15 04:34:00,
2013-05-15 00:39:00,36.5,31.8,30.03,South,170,0.0,0.0,83,0.00,,,0.00,Wunderground v.1.15,2013-05-15 04:39:00,
2013-05-15 00:44:00,36.3,31.6,30.03,South,170,0.0,0.0,83,0.00,,,0.00,Wunderground v.1.15,2013-05-15 04:44:00,
2013-05-15 00:50:00,36.3,31.6,30.03,South,170,0.0,0.0,83,0.00,,,0.00,Wunderground v.1.15,2013-05-15 04:50:00,
2013-05-15 00:56:00,36.2,31.5,30.03,South,170,0.0,0.0,83,0.00,,,0.00,Wunderground v.1.15,2013-05-15 04:56:00,
2013-05-15 01:01:00,36.2,31.5,30.03,South,170,0.0,0.0,83,0.00,,,0.00,Wunderground v.1.15,2013-05-15 05:01:00,
2013-05-15 01:06:00,36.0,31.3,30.03,South,170,0.0,0.0,83,0.00,,,0.00,Wunderground v.1.15,2013-05-15 05:06:00,
2013-05-15 01:11:00,35.9,31.2,30.03,South,170,0.0,0.0,83,0.00,,,0.00,Wunderground v.1.15,2013-05-15 05:11:00,
2013-05-15 01:18:00,35.9,31.2,30.03,South,170,0.0,0.0,83,0.00,,,0.00,Wunderground v.1.15,2013-05-15 05:18:00,
2013-05-15 01:23:00,35.8,31.1,30.03,South,170,0.0,0.0,83,0.00,,,0.00,Wunderground v.1.15,2013-05-15 05:23:00,
2013-05-15 01:29:00,35.6,30.9,30.03,South,170,0.0,0.0,83,0.00,,,0.00,Wunderground v.1.15,2013-05-15 05:29:00,
2013-05-15 01:34:00,35.5,30.8,30.03,South,170,0.0,0.0,83,0.00,,,0.00,Wunderground v.1.15,2013-05-15 05:34:00,
2013-05-15 01:39:00,35.3,30.9,30.03,South,170,0.0,0.0,84,0.00,,,0.00,Wunderground v.1.15,2013-05-15 05:39:00,
2013-05-15 01:44:00,35.3,30.9,30.03,South,170,0.0,0.0,84,0.00,,,0.00,Wunderground v.1.15,2013-05-15 05:44:00,
2013-05-15 01:49:00,35.2,30.9,30.03,South,170,0.0,0.0,84,0.00,,,0.00,Wunderground v.1.15,2013-05-15 05:49:00,
2013-05-15 01:55:00,35.2,30.9,30.03,South,170,0.0,0.0,84,0.00,,,0.00,Wunderground v.1.15,2013-05-15 05:55:00,
2013-05-15 01:59:00,35.2,30.9,30.03,South,170,0.0,0.0,84,0.00,,,0.00,Wunderground v.1.15,2013-05-15 05:59:00,
2013-05-15 02:05:00,35.0,30.9,30.03,South,170,0.0,0.0,85,0.00,,,0.00,Wunderground v.1.15,2013-05-15 06:05:00,
2013-05-15 02:10:00,35.0,31.2,30.03,South,170,0.0,0.0,86,0.00,,,0.00,Wunderground v.1.15,2013-05-15 06:10:00,
2013-05-15 02:15:00,35.0,31.5,30.03,South,170,0.0,0.0,87,0.00,,,0.00,Wunderground v.1.15,2013-05-15 06:15:00,
2013-05-15 02:20:00,34.9,31.4,30.03,South,170,0.0,0.0,87,0.00,,,0.00,Wunderground v.1.15,2013-05-15 06:20:00,
2013-05-15 02:25:00,34.9,31.4,30.03,South,170,0.0,0.0,87,0.00,,,0.00,Wunderground v.1.15,2013-05-15 06:25:00,
2013-05-15 02:30:00,34.9,31.4,30.03,South,170,0.0,0.0,87,0.00,,,0.00,Wunderground v.1.15,2013-05-15 06:30:00,
2013-05-15 02:35:00,34.7,31.2,30.03,South,170,0.0,0.0,87,0.00,,,0.00,Wunderground v.1.15,2013-05-15 06:35:00,
2013-05-15 02:41:00,34.6,31.1,30.03,South,170,0.0,0.0,87,0.00,,,0.00,Wunderground v.1.15,2013-05-15 06:41:00,
2013-05-15 02:46:00,34.4,30.9,30.03,South,170,0.0,0.0,87,0.00,,,0.00,Wunderground v.1.15,2013-05-15 06:46:00,
2013-05-15 02:51:00,34.3,30.8,30.03,South,170,0.0,0.0,87,0.00,,,0.00,Wunderground v.1.15,2013-05-15 06:51:00,
2013-05-15 02:57:00,34.1,30.9,30.03,South,170,0.0,0.0,88,0.00,,,0.00,Wunderground v.1.15,2013-05-15 06:57:00,
2013-05-15 03:02:00,34.0,30.8,30.03,South,170,0.0,0.0,88,0.00,,,0.00,Wunderground v.1.15,2013-05-15 07:02:00,
2013-05-15 03:07:00,33.8,30.3,30.03,South,170,0.0,0.0,87,0.00,,,0.00,Wunderground v.1.15,2013-05-15 07:07:00,
2013-05-15 03:12:00,33.7,30.2,30.03,South,170,0.0,0.0,87,0.00,,,0.00,Wunderground v.1.15,2013-05-15 07:12:00,
2013-05-15 03:17:00,33.5,30.0,30.03,South,170,0.0,0.0,87,0.00,,,0.00,Wunderground v.1.15,2013-05-15 07:17:00,
2013-05-15 03:23:00,33.5,29.8,30.03,South,170,0.0,0.0,86,0.00,,,0.00,Wunderground v.1.15,2013-05-15 07:23:00,
2013-05-15 03:28:00,33.4,29.7,30.03,South,170,0.0,0.0,86,0.00,,,0.00,Wunderground v.1.15,2013-05-15 07:28:00,
2013-05-15 03:33:00,33.2,29.5,30.03,South,170,0.0,0.0,86,0.00,,,0.00,Wunderground v.1.15,2013-05-15 07:33:00,
2013-05-15 03:38:00,33.2,29.5,30.03,South,170,0.0,0.0,86,0.00,,,0.00,Wunderground v.1.15,2013-05-15 07:38:00,
2013-05-15 03:43:00,33.1,29.7,30.03,South,170,0.0,0.0,87,0.00,,,0.00,Wunderground v.1.15,2013-05-15 07:43:00,
2013-05-15 03:48:00,32.9,29.5,30.03,South,170,0.0,0.0,87,0.00,,,0.00,Wunderground v.1.15,2013-05-15 07:48:00,
2013-05-15 03:53:00,32.8,29.4,30.03,South,170,0.0,0.0,87,0.00,,,0.00,Wunderground v.1.15,2013-05-15 07:53:00,
2013-05-15 03:58:00,32.8,29.4,30.03,South,170,0.0,0.0,87,0.00,,,0.00,Wunderground v.1.15,2013-05-15 07:58:00,
2013-05-15 04:03:00,32.7,29.3,30.03,South,170,0.0,0.0,87,0.00,,,0.00,Wunderground v.1.15,2013-05-15 08:03:00,
2013-05-15 04:09:00,32.7,29.3,30.03,South,170,0.0,0.0,87,0.00,,,0.00,Wunderground v.1.15,2013-05-15 08:09:00,
2013-05-15 04:14:00,32.5,29.3,30.03,South,170,0.0,0.0,88,0.00,,,0.00,Wunderground v.1.15,2013-05-15 08:14:00,
2013-05-15 04:19:00,32.4,29.0,30.03,South,170,0.0,0.0,87,0.00,,,0.00,Wunderground v.1.15,2013-05-15 08:19:00,
2013-05-15 04:24:00,32.2,28.8,30.03,South,170,0.0,0.0,87,0.00,,,0.00,Wunderground v.1.15,2013-05-15 08:24:00,
2013-05-15 04:29:00,32.2,29.0,30.03,South,170,0.0,0.0,88,0.00,,,0.00,Wunderground v.1.15,2013-05-15 08:29:00,
2013-05-15 04:34:00,32.1,28.9,30.03,South,170,0.0,0.0,88,0.00,,,0.00,Wunderground v.1.15,2013-05-15 08:34:00,
2013-05-15 04:39:00,32.1,28.7,30.03,South,170,0.0,0.0,87,0.00,,,0.00,Wunderground v.1.15,2013-05-15 08:39:00,
2013-05-15 04:44:00,31.9,28.8,30.03,South,170,0.0,0.0,88,0.00,,,0.00,Wunderground v.1.15,2013-05-15 08:44:00,
2013-05-15 04:49:00,31.8,28.4,30.03,South,170,0.0,0.0,87,0.00,,,0.00,Wunderground v.1.15,2013-05-15 08:49:00,
2013-05-15 04:54:00,31.8,28.4,30.03,South,170,0.0,0.0,87,0.00,,,0.00,Wunderground v.1.15,2013-05-15 08:54:00,
2013-05-15 04:59:00,31.6,28.2,30.03,South,170,0.0,0.0,87,0.00,,,0.00,Wunderground v.1.15,2013-05-15 08:59:00,
2013-05-15 05:05:00,31.6,28.2,30.03,South,170,0.0,0.0,87,0.00,,,0.00,Wunderground v.1.15,2013-05-15 09:05:00,
2013-05-15 05:10:00,31.5,28.1,30.03,South,170,0.0,0.0,87,0.00,,,0.00,Wunderground v.1.15,2013-05-15 09:10:00,
2013-05-15 05:15:00,31.3,27.9,30.03,South,170,0.0,0.0,87,0.00,,,0.00,Wunderground v.1.15,2013-05-15 09:15:00,
2013-05-15 05:20:00,31.3,27.9,30.03,South,170,0.0,0.0,87,0.00,,,0.00,Wunderground v.1.15,2013-05-15 09:20:00,
2013-05-15 05:25:00,31.2,28.1,30.03,South,170,0.0,0.0,88,0.00,,,0.00,Wunderground v.1.15,2013-05-15 09:25:00,
2013-05-15 05:30:00,31.2,28.1,30.03,South,170,0.0,0.0,88,0.00,,,0.00,Wunderground v.1.15,2013-05-15 09:30:00,
2013-05-15 05:35:00,31.0,27.9,30.03,South,170,0.0,0.0,88,0.00,,,0.00,Wunderground v.1.15,2013-05-15 09:35:00,
2013-05-15 05:40:00,31.0,28.1,30.03,South,170,0.0,0.0,89,0.00,,,0.00,Wunderground v.1.15,2013-05-15 09:40:00,
2013-05-15 05:45:00,30.9,27.8,30.03,South,170,0.0,0.0,88,0.00,,,0.00,Wunderground v.1.15,2013-05-15 09:45:00,
2013-05-15 05:51:00,30.9,27.8,30.03,South,170,0.0,0.0,88,0.00,,,0.00,Wunderground v.1.15,2013-05-15 09:51:00,
2013-05-15 05:56:00,30.9,28.0,30.03,South,170,0.0,0.0,89,0.00,,,0.00,Wunderground v.1.15,2013-05-15 09:56:00,
2013-05-15 06:02:00,30.7,27.8,30.03,South,170,0.0,0.0,89,0.00,,,0.00,Wunderground v.1.15,2013-05-15 10:02:00,
2013-05-15 06:07:00,30.7,27.8,30.03,South,170,0.0,0.0,89,0.00,,,0.00,Wunderground v.1.15,2013-05-15 10:07:00,
2013-05-15 06:12:00,30.7,27.8,30.04,South,170,0.0,0.0,89,0.00,,,0.00,Wunderground v.1.15,2013-05-15 10:12:00,
2013-05-15 06:17:00,30.7,28.1,30.04,South,170,0.0,0.0,90,0.00,,,0.00,Wunderground v.1.15,2013-05-15 10:17:00,
2013-05-15 06:22:00,30.7,28.1,30.04,South,170,0.0,0.0,90,0.00,,,0.00,Wunderground v.1.15,2013-05-15 10:22:00,
2013-05-15 06:27:00,30.9,28.3,30.05,South,170,0.0,0.0,90,0.00,,,0.00,Wunderground v.1.15,2013-05-15 10:27:00,
2013-05-15 06:32:00,31.0,28.7,30.05,South,170,0.0,0.0,91,0.00,,,0.00,Wunderground v.1.15,2013-05-15 10:32:00,
2013-05-15 06:37:00,31.2,29.1,30.05,South,170,0.0,0.0,92,0.00,,,0.00,Wunderground v.1.15,2013-05-15 10:37:00,
2013-05-15 06:43:00,31.2,29.1,30.04,South,170,0.0,0.0,92,0.00,,,0.00,Wunderground v.1.15,2013-05-15 10:43:00,
2013-05-15 06:48:00,31.3,29.2,30.04,South,170,0.0,0.0,92,0.00,,,0.00,Wunderground v.1.15,2013-05-15 10:48:00,
2013-05-15 06:53:00,31.5,29.7,30.04,South,170,0.0,0.0,93,0.00,,,0.00,Wunderground v.1.15,2013-05-15 10:53:00,
2013-05-15 06:58:00,31.6,29.8,30.04,South,170,0.0,0.0,93,0.00,,,0.00,Wunderground v.1.15,2013-05-15 10:58:00,
2013-05-15 07:04:00,31.9,30.1,30.04,South,170,0.0,0.0,93,0.00,,,0.00,Wunderground v.1.15,2013-05-15 11:04:00,
2013-05-15 07:09:00,32.1,30.3,30.04,South,170,0.0,0.0,93,0.00,,,0.00,Wunderground v.1.15,2013-05-15 11:09:00,
2013-05-15 07:14:00,32.4,30.9,30.03,South,170,0.0,0.0,94,0.00,,,0.00,Wunderground v.1.15,2013-05-15 11:14:00,
2013-05-15 07:19:00,32.7,31.2,30.03,South,170,0.0,0.0,94,0.00,,,0.00,Wunderground v.1.15,2013-05-15 11:19:00,
2013-05-15 07:24:00,32.9,31.6,30.03,South,170,0.0,0.0,95,0.00,,,0.00,Wunderground v.1.15,2013-05-15 11:24:00,
2013-05-15 07:29:00,33.2,31.9,30.03,South,170,0.0,0.0,95,0.00,,,0.00,Wunderground v.1.15,2013-05-15 11:29:00,
2013-05-15 07:34:00,33.7,32.4,30.03,South,170,0.0,0.0,95,0.00,,,0.00,Wunderground v.1.15,2013-05-15 11:34:00,
2013-05-15 07:40:00,34.1,33.1,30.03,South,170,0.0,0.0,96,0.00,,,0.00,Wunderground v.1.15,2013-05-15 11:40:00,
2013-05-15 07:45:00,34.4,33.4,30.03,South,170,0.0,0.0,96,0.00,,,0.00,Wunderground v.1.15,2013-05-15 11:45:00,
2013-05-15 07:50:00,34.9,33.9,30.03,South,170,0.0,0.0,96,0.00,,,0.00,Wunderground v.1.15,2013-05-15 11:50:00,
2013-05-15 07:56:00,35.6,34.6,30.03,South,170,0.0,0.0,96,0.00,,,0.00,Wunderground v.1.15,2013-05-15 11:56:00,
2013-05-15 08:01:00,36.2,35.2,30.03,South,170,0.0,0.0,96,0.00,,,0.00,Wunderground v.1.15,2013-05-15 12:01:00,
2013-05-15 08:06:00,36.8,35.8,30.03,South,170,0.0,0.0,96,0.00,,,0.00,Wunderground v.1.15,2013-05-15 12:06:00,
2013-05-15 08:12:00,37.2,36.2,30.02,South,170,0.0,0.0,96,0.00,,,0.00,Wunderground v.1.15,2013-05-15 12:12:00,
2013-05-15 08:17:00,37.6,36.6,30.02,South,170,0.0,0.0,96,0.00,,,0.00,Wunderground v.1.15,2013-05-15 12:17:00,
2013-05-15 08:22:00,38.0,37.0,30.02,South,170,0.0,0.0,96,0.00,,,0.00,Wunderground v.1.15,2013-05-15 12:22:00,
2013-05-15 08:27:00,38.6,37.3,30.02,SSE,166,0.0,0.0,95,0.00,,,0.00,Wunderground v.1.15,2013-05-15 12:27:00,
2013-05-15 08:32:00,39.2,36.2,30.02,SSE,166,0.0,0.0,89,0.00,,,0.00,Wunderground v.1.15,2013-05-15 12:32:00,
2013-05-15 08:37:00,39.9,36.9,30.02,SSE,166,0.0,0.0,89,0.00,,,0.00,Wunderground v.1.15,2013-05-15 12:37:00,
2013-05-15 08:43:00,40.5,36.6,30.00,SSE,166,0.0,0.0,86,0.00,,,0.00,Wunderground v.1.15,2013-05-15 12:43:00,
2013-05-15 08:48:00,41.2,36.4,30.00,SSE,166,0.0,0.0,83,0.00,,,0.00,Wunderground v.1.15,2013-05-15 12:48:00,
2013-05-15 08:53:00,41.8,35.8,30.00,SSE,166,0.0,0.0,79,0.00,,,0.00,Wunderground v.1.15,2013-05-15 12:53:00,
2013-05-15 08:58:00,42.5,35.5,29.99,SSE,160,0.0,0.0,76,0.00,,,0.00,Wunderground v.1.15,2013-05-15 12:58:00,
2013-05-15 09:03:00,43.3,34.5,29.99,SSE,160,0.0,0.0,71,0.00,,,0.00,Wunderground v.1.15,2013-05-15 13:03:00,
2013-05-15 09:09:00,44.5,37.1,29.99,South,172,0.0,0.0,75,0.00,,,0.00,Wunderground v.1.15,2013-05-15 13:09:00,
2013-05-15 09:14:00,45.4,37.9,29.98,South,172,0.0,0.0,75,0.00,,,0.00,Wunderground v.1.15,2013-05-15 13:14:00,
2013-05-15 09:19:00,46.2,38.7,29.98,South,172,0.0,0.0,75,0.00,,,0.00,Wunderground v.1.15,2013-05-15 13:19:00,
2013-05-15 09:24:00,46.8,34.0,29.98,North,354,0.0,0.0,61,0.00,,,0.00,Wunderground v.1.15,2013-05-15 13:24:00,
2013-05-15 09:29:00,47.9,33.8,29.97,ESE,117,0.0,0.0,58,0.00,,,0.00,Wunderground v.1.15,2013-05-15 13:29:00,
2013-05-15 09:34:00,48.9,36.4,29.97,SSW,196,0.0,0.0,62,0.00,,,0.00,Wunderground v.1.15,2013-05-15 13:34:00,
2013-05-15 09:39:00,49.9,35.3,29.96,South,169,0.0,1.0,57,0.00,,,0.00,Wunderground v.1.15,2013-05-15 13:39:00,
2013-05-15 09:45:00,51.0,35.4,29.96,NE,43,0.0,0.0,55,0.00,,,0.00,Wunderground v.1.15,2013-05-15 13:45:00,
2013-05-15 09:50:00,51.7,36.0,29.96,South,184,0.0,0.0,55,0.00,,,0.00,Wunderground v.1.15,2013-05-15 13:50:00,
2013-05-15 09:56:00,52.6,35.0,29.96,South,180,0.0,0.0,51,0.00,,,0.00,Wunderground v.1.15,2013-05-15 13:56:00,
2013-05-15 10:01:00,53.3,33.6,29.96,South,180,0.0,0.0,47,0.00,,,0.00,Wunderground v.1.15,2013-05-15 14:01:00,
2013-05-15 10:06:00,54.2,34.9,29.96,West,270,0.0,0.0,48,0.00,,,0.00,Wunderground v.1.15,2013-05-15 14:06:00,
2013-05-15 10:11:00,56.6,34.3,29.95,SSW,204,0.0,0.0,43,0.00,,,0.00,Wunderground v.1.15,2013-05-15 14:11:00,
2013-05-15 10:16:00,57.5,31.4,29.95,ESE,107,0.0,0.0,37,0.00,,,0.00,Wunderground v.1.15,2013-05-15 14:16:00,
2013-05-15 10:21:00,58.3,28.5,29.95,SE,145,0.0,1.0,32,0.00,,,0.00,Wunderground v.1.15,2013-05-15 14:21:00,
2013-05-15 10:27:00,59.3,35.6,29.94,South,177,0.0,0.0,41,0.00,,,0.00,Wunderground v.1.15,2013-05-15 14:27:00,
2013-05-15 10:32:00,59.6,31.9,29.94,West,263,0.0,1.0,35,0.00,,,0.00,Wunderground v.1.15,2013-05-15 14:32:00,
2013-05-15 10:37:00,60.1,33.0,29.94,SSE,149,0.0,1.0,36,0.00,,,0.00,Wunderground v.1.15,2013-05-15 14:37:00,
2013-05-15 10:42:00,60.4,33.3,29.94,SSE,162,0.0,1.0,36,0.00,,,0.00,Wunderground v.1.15,2013-05-15 14:42:00,
2013-05-15 10:47:00,61.2,27.8,29.94,SSE,156,0.0,4.0,28,0.00,,,0.00,Wunderground v.1.15,2013-05-15 14:47:00,
2013-05-15 10:53:00,62.1,30.3,29.94,SW,232,0.0,4.0,30,0.00,,,0.00,Wunderground v.1.15,2013-05-15 14:53:00,
2013-05-15 10:58:00,62.9,29.3,29.93,ENE,74,0.0,1.0,28,0.00,,,0.00,Wunderground v.1.15,2013-05-15 14:58:00,
2013-05-15 11:04:00,63.4,31.4,29.93,SSW,193,0.0,2.0,30,0.00,,,0.00,Wunderground v.1.15,2013-05-15 15:04:00,
2013-05-15 11:09:00,63.4,28.8,29.93,SE,143,0.0,0.0,27,0.00,,,0.00,Wunderground v.1.15,2013-05-15 15:09:00,
2013-05-15 11:14:00,64.3,32.2,29.92,SSE,158,1.0,1.0,30,0.00,,,0.00,Wunderground v.1.15,2013-05-15 15:14:00,
2013-05-15 11:20:00,64.2,29.5,29.92,SE,125,0.0,2.0,27,0.00,,,0.00,Wunderground v.1.15,2013-05-15 15:20:00,
2013-05-15 11:25:00,64.3,30.5,29.91,South,191,2.0,2.0,28,0.00,,,0.00,Wunderground v.1.15,2013-05-15 15:25:00,
2013-05-15 11:30:00,65.5,31.5,29.91,South,187,0.0,2.0,28,0.00,,,0.00,Wunderground v.1.15,2013-05-15 15:30:00,
2013-05-15 11:35:00,66.0,29.1,29.91,ENE,59,2.0,2.0,25,0.00,,,0.00,Wunderground v.1.15,2013-05-15 15:35:00,
2013-05-15 11:40:00,65.2,29.4,29.90,South,187,0.0,4.0,26,0.00,,,0.00,Wunderground v.1.15,2013-05-15 15:40:00,
2013-05-15 11:46:00,65.3,30.4,29.90,West,265,0.0,1.0,27,0.00,,,0.00,Wunderground v.1.15,2013-05-15 15:46:00,
2013-05-15 11:52:00,65.3,29.5,29.90,East,81,0.0,4.0,26,0.00,,,0.00,Wunderground v.1.15,2013-05-15 15:52:00,
2013-05-15 11:57:00,65.3,29.5,29.89,South,177,0.0,2.0,26,0.00,,,0.00,Wunderground v.1.15,2013-05-15 15:57:00,
2013-05-15 12:02:00,66.3,32.2,29.89,SSW,196,0.0,2.0,28,0.00,,,0.00,Wunderground v.1.15,2013-05-15 16:02:00,
2013-05-15 12:07:00,66.3,32.2,29.89,West,270,4.0,7.0,28,0.00,,,0.00,Wunderground v.1.15,2013-05-15 16:07:00,
2013-05-15 12:12:00,67.1,32.0,29.88,SE,142,0.0,7.0,27,0.00,,,0.00,Wunderground v.1.15,2013-05-15 16:12:00,
2013-05-15 12:17:00,67.6,28.5,29.88,NNW,340,0.0,1.0,23,0.00,,,0.00,Wunderground v.1.15,2013-05-15 16:17:00,
2013-05-15 12:22:00,67.9,31.7,29.88,SSE,150,2.0,2.0,26,0.00,,,0.00,Wunderground v.1.15,2013-05-15 16:22:00,
2013-05-15 12:28:00,67.1,30.1,29.87,NNE,23,0.0,2.0,25,0.00,,,0.00,Wunderground v.1.15,2013-05-15 16:28:00,
2013-05-15 12:33:00,67.9,33.6,29.87,West,266,2.0,6.0,28,0.00,,,0.00,Wunderground v.1.15,2013-05-15 16:33:00,
2013-05-15 12:39:00,68.1,32.8,29.87,SSE,160,0.0,4.0,27,0.00,,,0.00,Wunderground v.1.15,2013-05-15 16:39:00,
2013-05-15 12:45:00,66.4,30.4,29.87,ESE,119,1.0,1.0,26,0.00,,,0.00,Wunderground v.1.15,2013-05-15 16:45:00,
2013-05-15 12:50:00,65.5,33.2,29.87,SE,129,0.0,6.0,30,0.00,,,0.00,Wunderground v.1.15,2013-05-15 16:50:00,
2013-05-15 12:55:00,64.7,30.8,29.86,SE,129,0.0,1.0,28,0.00,,,0.00,Wunderground v.1.15,2013-05-15 16:55:00,
2013-05-15 13:00:00,63.9,34.2,29.86,SSE,159,0.0,2.0,33,0.00,,,0.00,Wunderground v.1.15,2013-05-15 17:00:00,
2013-05-15 13:06:00,63.5,35.3,29.86,South,170,0.0,0.0,35,0.00,,,0.00,Wunderground v.1.15,2013-05-15 17:06:00,
2013-05-15 13:11:00,62.9,34.8,29.87,South,176,0.0,1.0,35,0.00,,,0.00,Wunderground v.1.15,2013-05-15 17:11:00,
2013-05-15 13:16:00,62.4,35.1,29.87,SSE,162,0.0,1.0,36,0.00,,,0.00,Wunderground v.1.15,2013-05-15 17:16:00,
2013-05-15 13:21:00,62.4,35.8,29.87,North,354,0.0,1.0,37,0.00,,,0.00,Wunderground v.1.15,2013-05-15 17:21:00,
2013-05-15 13:27:00,63.2,34.3,29.86,South,173,0.0,2.0,34,0.00,,,0.00,Wunderground v.1.15,2013-05-15 17:27:00,
2013-05-15 13:32:00,63.5,36.0,29.86,SSE,148,1.0,2.0,36,0.00,,,0.00,Wunderground v.1.15,2013-05-15 17:32:00,
2013-05-15 13:37:00,63.7,37.6,29.86,SW,231,0.0,0.0,38,0.00,,,0.00,Wunderground v.1.15,2013-05-15 17:37:00,
2013-05-15 13:42:00,65.0,37.4,29.84,ENE,74,0.0,1.0,36,0.00,,,0.00,Wunderground v.1.15,2013-05-15 17:42:00,
2013-05-15 13:47:00,67.1,38.5,29.84,SE,126,6.0,6.0,35,0.00,,,0.00,Wunderground v.1.15,2013-05-15 17:47:00,
2013-05-15 13:52:00,67.6,36.7,29.84,SSE,156,0.0,6.0,32,0.00,,,0.00,Wunderground v.1.15,2013-05-15 17:52:00,
2013-05-15 13:57:00,66.1,34.6,29.82,SSW,200,1.0,2.0,31,0.00,,,0.00,Wunderground v.1.15,2013-05-15 17:57:00,
2013-05-15 14:02:00,65.2,36.8,29.82,South,180,0.0,2.0,35,0.00,,,0.00,Wunderground v.1.15,2013-05-15 18:02:00,
2013-05-15 14:07:00,64.5,36.2,29.82,South,174,0.0,1.0,35,0.00,,,0.00,Wunderground v.1.15,2013-05-15 18:07:00,
2013-05-15 14:12:00,63.7,36.9,29.81,South,189,0.0,4.0,37,0.00,,,0.00,Wunderground v.1.15,2013-05-15 18:12:00,
2013-05-15 14:18:00,63.9,38.4,29.81,SSE,160,1.0,2.0,39,0.00,,,0.00,Wunderground v.1.15,2013-05-15 18:18:00,
2013-05-15 14:23:00,65.0,40.7,29.81,SE,132,0.0,6.0,41,0.00,,,0.00,Wunderground v.1.15,2013-05-15 18:23:00,
2013-05-15 14:28:00,66.0,41.6,29.80,WSW,242,0.0,2.0,41,0.00,,,0.00,Wunderground v.1.15,2013-05-15 18:28:00,
2013-05-15 14:33:00,66.0,38.3,29.80,SSE,165,0.0,2.0,36,0.00,,,0.00,Wunderground v.1.15,2013-05-15 18:33:00,
2013-05-15 14:38:00,65.3,38.3,29.80,SW,227,2.0,4.0,37,0.00,,,0.00,Wunderground v.1.15,2013-05-15 18:38:00,
2013-05-15 14:43:00,64.2,37.4,29.79,SE,141,1.0,4.0,37,0.00,,,0.00,Wunderground v.1.15,2013-05-15 18:43:00,
2013-05-15 14:49:00,63.4,36.7,29.79,SE,141,0.0,0.0,37,0.00,,,0.00,Wunderground v.1.15,2013-05-15 18:49:00,
2013-05-15 14:54:00,63.1,38.4,29.79,SSE,165,0.0,1.0,40,0.00,,,0.00,Wunderground v.1.15,2013-05-15 18:54:00,
2013-05-15 14:59:00,62.7,38.0,29.78,SE,132,0.0,1.0,40,0.00,,,0.00,Wunderground v.1.15,2013-05-15 18:59:00,
2013-05-15 15:04:00,62.4,39.0,29.78,South,189,0.0,1.0,42,0.00,,,0.00,Wunderground v.1.15,2013-05-15 19:04:00,
2013-05-15 15:09:00,62.4,40.8,29.78,East,93,0.0,2.0,45,0.00,,,0.00,Wunderground v.1.15,2013-05-15 19:09:00,
2013-05-15 15:14:00,61.6,41.2,29.77,SE,145,0.0,0.0,47,0.00,,,0.00,Wunderground v.1.15,2013-05-15 19:14:00,
2013-05-15 15:20:00,60.9,40.5,29.77,SE,142,0.0,2.0,47,0.00,,,0.00,Wunderground v.1.15,2013-05-15 19:20:00,
2013-05-15 15:25:00,60.4,40.1,29.79,NW,311,0.0,0.0,47,0.00,,,0.00,Wunderground v.1.15,2013-05-15 19:25:00,
2013-05-15 15:30:00,59.9,39.6,29.79,ENE,74,0.0,0.0,47,0.00,,,0.00,Wunderground v.1.15,2013-05-15 19:30:00,
2013-05-15 15:36:00,59.6,42.4,29.79,East,83,0.0,0.0,53,0.00,,,0.00,Wunderground v.1.15,2013-05-15 19:36:00,
2013-05-15 15:41:00,56.7,39.7,29.79,ENE,70,0.0,0.0,53,0.00,,,0.00,Wunderground v.1.15,2013-05-15 19:41:00,
2013-05-15 15:46:00,54.5,48.5,29.79,ENE,71,0.0,0.0,80,0.00,,,0.00,Wunderground v.1.15,2013-05-15 19:46:00,
2013-05-15 15:51:00,53.5,49.7,29.79,ENE,71,0.0,0.0,87,0.00,,,0.00,Wunderground v.1.15,2013-05-15 19:51:00,
2013-05-15 15:56:00,52.9,50.0,29.81,ENE,71,0.0,0.0,90,0.00,,,0.00,Wunderground v.1.15,2013-05-15 19:56:00,
2013-05-15 16:02:00,52.9,50.9,29.81,NW,307,0.0,1.0,93,0.00,,,0.01,Wunderground v.1.15,2013-05-15 20:02:00,
2013-05-15 16:07:00,52.9,51.5,29.81,NW,309,0.0,0.0,95,0.00,,,0.01,Wunderground v.1.15,2013-05-15 20:07:00,
2013-05-15 16:12:00,52.8,51.4,29.80,NW,309,0.0,0.0,95,0.00,,,0.01,Wunderground v.1.15,2013-05-15 20:12:00,
2013-05-15 16:17:00,52.6,51.2,29.80,NW,309,0.0,0.0,95,0.00,,,0.01,Wunderground v.1.15,2013-05-15 20:17:00,
2013-05-15 16:22:00,52.3,51.2,29.80,NW,309,0.0,0.0,96,0.00,,,0.01,Wunderground v.1.15,2013-05-15 20:22:00,
2013-05-15 16:27:00,52.0,50.9,29.80,NW,309,0.0,0.0,96,0.00,,,0.01,Wunderground v.1.15,2013-05-15 20:27:00,
2013-05-15 16:32:00,52.0,50.9,29.80,NW,309,0.0,0.0,96,0.00,,,0.01,Wunderground v.1.15,2013-05-15 20:32:00,
2013-05-15 16:38:00,51.7,50.6,29.80,NW,309,0.0,0.0,96,0.00,,,0.01,Wunderground v.1.15,2013-05-15 20:38:00,
2013-05-15 16:43:00,52.0,51.2,29.78,NW,309,0.0,0.0,97,0.00,,,0.01,Wunderground v.1.15,2013-05-15 20:43:00,
2013-05-15 16:48:00,51.6,50.5,29.78,NW,309,0.0,0.0,96,0.00,,,0.01,Wunderground v.1.15,2013-05-15 20:48:00,
2013-05-15 16:53:00,51.3,50.2,29.78,NW,309,0.0,0.0,96,0.00,,,0.01,Wunderground v.1.15,2013-05-15 20:53:00,
2013-05-15 16:59:00,51.3,50.2,29.75,NW,309,0.0,0.0,96,0.00,,,0.01,Wunderground v.1.15,2013-05-15 20:59:00,
2013-05-15 17:04:00,51.4,50.6,29.75,NW,309,0.0,0.0,97,0.00,,,0.01,Wunderground v.1.15,2013-05-15 21:04:00,
2013-05-15 17:09:00,51.3,50.2,29.75,NW,309,0.0,0.0,96,0.00,,,0.01,Wunderground v.1.15,2013-05-15 21:09:00,
2013-05-15 17:14:00,51.3,50.5,29.72,NW,309,0.0,0.0,97,0.00,,,0.01,Wunderground v.1.15,2013-05-15 21:14:00,
2013-05-15 17:19:00,51.3,50.5,29.72,NW,309,0.0,0.0,97,0.00,,,0.01,Wunderground v.1.15,2013-05-15 21:19:00,
2013-05-15 17:24:00,51.6,50.8,29.72,NW,309,0.0,0.0,97,0.00,,,0.01,Wunderground v.1.15,2013-05-15 21:24:00,
2013-05-15 17:29:00,51.6,50.8,29.72,NW,309,0.0,0.0,97,0.00,,,0.01,Wunderground v.1.15,2013-05-15 21:29:00,
2013-05-15 17:34:00,51.7,50.9,29.72,NW,309,0.0,0.0,97,0.00,,,0.01,Wunderground v.1.15,2013-05-15 21:34:00,
2013-05-15 17:39:00,51.6,50.5,29.72,NW,309,0.0,0.0,96,0.00,,,0.01,Wunderground v.1.15,2013-05-15 21:39:00,
2013-05-15 17:44:00,51.6,50.5,29.73,NW,309,0.0,0.0,96,0.00,,,0.01,Wunderground v.1.15,2013-05-15 21:44:00,
2013-05-15 17:50:00,52.0,50.9,29.73,NW,309,0.0,0.0,96,0.00,,,0.01,Wunderground v.1.15,2013-05-15 21:50:00,
2013-05-15 17:55:00,52.0,50.9,29.71,NW,309,0.0,0.0,96,0.00,,,0.01,Wunderground v.1.15,2013-05-15 21:55:00,
2013-05-15 18:01:00,52.2,51.1,29.71,NW,307,0.0,0.0,96,0.00,,,0.01,Wunderground v.1.15,2013-05-15 22:01:00,
2013-05-15 18:06:00,52.0,50.9,29.71,NW,309,0.0,0.0,96,0.00,,,0.01,Wunderground v.1.15,2013-05-15 22:06:00,
2013-05-15 18:11:00,51.7,50.6,29.72,NW,309,0.0,0.0,96,0.00,,,0.01,Wunderground v.1.15,2013-05-15 22:11:00,
2013-05-15 18:16:00,51.6,50.2,29.72,NW,309,0.0,0.0,95,0.00,,,0.01,Wunderground v.1.15,2013-05-15 22:16:00,
2013-05-15 18:21:00,51.6,50.5,29.72,NW,309,0.0,0.0,96,0.00,,,0.01,Wunderground v.1.15,2013-05-15 22:21:00,
2013-05-15 18:27:00,51.3,50.2,29.71,NW,309,0.0,0.0,96,0.00,,,0.01,Wunderground v.1.15,2013-05-15 22:27:00,
2013-05-15 18:32:00,51.3,50.2,29.71,NW,309,0.0,0.0,96,0.00,,,0.01,Wunderground v.1.15,2013-05-15 22:32:00,
2013-05-15 18:37:00,51.1,50.0,29.71,NW,307,0.0,0.0,96,0.00,,,0.01,Wunderground v.1.15,2013-05-15 22:37:00,
2013-05-15 18:42:00,51.1,50.0,29.70,NW,309,0.0,0.0,96,0.00,,,0.01,Wunderground v.1.15,2013-05-15 22:42:00,
2013-05-15 18:47:00,51.1,50.0,29.70,NW,309,0.0,0.0,96,0.00,,,0.01,Wunderground v.1.15,2013-05-15 22:47:00,
2013-05-15 18:52:00,51.1,50.0,29.70,NW,309,0.0,0.0,96,0.00,,,0.01,Wunderground v.1.15,2013-05-15 22:52:00,
2013-05-15 18:57:00,51.0,49.9,29.70,NW,309,0.0,0.0,96,0.00,,,0.01,Wunderground v.1.15,2013-05-15 22:57:00,
2013-05-15 19:03:00,51.0,50.2,29.70,NW,309,0.0,0.0,97,0.00,,,0.01,Wunderground v.1.15,2013-05-15 23:03:00,
2013-05-15 19:08:00,51.0,50.2,29.70,NW,307,0.0,0.0,97,0.00,,,0.01,Wunderground v.1.15,2013-05-15 23:08:00,
2013-05-15 19:13:00,51.1,50.3,29.70,NW,307,0.0,0.0,97,0.00,,,0.01,Wunderground v.1.15,2013-05-15 23:13:00,
2013-05-15 19:18:00,51.1,50.3,29.70,NW,309,0.0,0.0,97,0.00,,,0.01,Wunderground v.1.15,2013-05-15 23:18:00,
2013-05-15 19:23:00,51.1,50.6,29.70,NW,309,0.0,0.0,98,0.00,,,0.01,Wunderground v.1.15,2013-05-15 23:23:00,
2013-05-15 19:28:00,51.1,50.6,29.69,NW,307,0.0,0.0,98,0.00,,,0.01,Wunderground v.1.15,2013-05-15 23:28:00,
2013-05-15 19:34:00,51.1,50.6,29.69,NW,306,0.0,0.0,98,0.00,,,0.01,Wunderground v.1.15,2013-05-15 23:34:00,
2013-05-15 19:39:00,51.1,50.6,29.69,NW,306,0.0,0.0,98,0.00,,,0.01,Wunderground v.1.15,2013-05-15 23:39:00,
2013-05-15 19:44:00,51.1,50.6,29.68,NW,306,0.0,0.0,98,0.00,,,0.01,Wunderground v.1.15,2013-05-15 23:44:00,
2013-05-15 19:49:00,51.1,50.6,29.68,NW,306,0.0,0.0,98,0.00,,,0.01,Wunderground v.1.15,2013-05-15 23:49:00,
2013-05-15 19:54:00,51.1,50.6,29.68,NW,306,0.0,0.0,98,0.00,,,0.01,Wunderground v.1.15,2013-05-15 23:54:00,
2013-05-15 19:59:00,51.1,50.6,29.68,NW,306,0.0,0.0,98,0.00,,,0.01,Wunderground v.1.15,2013-05-15 23:59:00,
2013-05-15 20:04:00,51.1,50.6,29.68,NW,306,0.0,0.0,98,0.00,,,0.01,Wunderground v.1.15,2013-05-16 00:04:00,
2013-05-15 20:09:00,51.3,50.8,29.67,NW,306,0.0,0.0,98,0.00,,,0.01,Wunderground v.1.15,2013-05-16 00:09:00,
2013-05-15 20:15:00,51.3,50.8,29.67,NW,306,0.0,0.0,98,0.00,,,0.01,Wunderground v.1.15,2013-05-16 00:15:00,
2013-05-15 20:20:00,51.3,50.8,29.67,NW,306,0.0,0.0,98,0.00,,,0.01,Wunderground v.1.15,2013-05-16 00:20:00,
2013-05-15 20:25:00,51.3,50.8,29.66,NW,306,0.0,0.0,98,0.00,,,0.01,Wunderground v.1.15,2013-05-16 00:25:00,
2013-05-15 20:30:00,51.4,50.9,29.66,NW,314,0.0,0.0,98,0.00,,,0.01,Wunderground v.1.15,2013-05-16 00:30:00,
2013-05-15 20:35:00,51.4,50.9,29.66,NW,314,0.0,0.0,98,0.00,,,0.01,Wunderground v.1.15,2013-05-16 00:35:00,
2013-05-15 20:40:00,51.4,50.9,29.67,NW,314,0.0,0.0,98,0.00,,,0.01,Wunderground v.1.15,2013-05-16 00:40:00,
2013-05-15 20:45:00,51.6,51.1,29.67,NW,314,0.0,0.0,98,0.00,,,0.01,Wunderground v.1.15,2013-05-16 00:45:00,
2013-05-15 20:51:00,51.6,51.1,29.67,NW,314,0.0,0.0,98,0.00,,,0.01,Wunderground v.1.15,2013-05-16 00:51:00,
2013-05-15 20:56:00,51.7,51.2,29.66,NW,314,0.0,0.0,98,0.00,,,0.01,Wunderground v.1.15,2013-05-16 00:56:00,
2013-05-15 21:01:00,51.6,51.1,29.66,NW,314,0.0,0.0,98,0.00,,,0.01,Wunderground v.1.15,2013-05-16 01:01:00,
2013-05-15 21:06:00,51.7,51.2,29.66,NW,314,0.0,0.0,98,0.00,,,0.01,Wunderground v.1.15,2013-05-16 01:06:00,
2013-05-15 21:12:00,51.6,51.1,29.66,NW,314,0.0,0.0,98,0.00,,,0.01,Wunderground v.1.15,2013-05-16 01:12:00,
2013-05-15 21:17:00,51.7,51.4,29.66,NW,314,0.0,0.0,99,0.00,,,0.01,Wunderground v.1.15,2013-05-16 01:17:00,
2013-05-15 21:22:00,51.7,51.2,29.66,NW,314,0.0,0.0,98,0.00,,,0.01,Wunderground v.1.15,2013-05-16 01:22:00,
2013-05-15 21:27:00,51.7,51.2,29.67,NW,314,0.0,0.0,98,0.00,,,0.01,Wunderground v.1.15,2013-05-16 01:27:00,
2013-05-15 21:32:00,51.7,51.2,29.67,NW,314,0.0,0.0,98,0.00,,,0.01,Wunderground v.1.15,2013-05-16 01:32:00,
2013-05-15 21:37:00,51.7,51.4,29.67,NW,314,0.0,0.0,99,0.00,,,0.01,Wunderground v.1.15,2013-05-16 01:37:00,
2013-05-15 21:43:00,51.7,51.4,29.67,NW,314,0.0,0.0,99,0.00,,,0.01,Wunderground v.1.15,2013-05-16 01:43:00,
2013-05-15 21:48:00,51.7,51.4,29.67,NW,314,0.0,0.0,99,0.00,,,0.01,Wunderground v.1.15,2013-05-16 01:48:00,
2013-05-15 21:53:00,51.6,51.3,29.67,NW,314,0.0,0.0,99,0.00,,,0.01,Wunderground v.1.15,2013-05-16 01:53:00,
2013-05-15 21:58:00,51.6,51.3,29.66,NW,314,0.0,0.0,99,0.00,,,0.01,Wunderground v.1.15,2013-05-16 01:58:00,
2013-05-15 22:04:00,51.4,51.1,29.66,NW,314,0.0,0.0,99,0.00,,,0.01,Wunderground v.1.15,2013-05-16 02:04:00,
2013-05-15 22:09:00,51.4,51.1,29.66,NW,314,0.0,0.0,99,0.00,,,0.01,Wunderground v.1.15,2013-05-16 02:09:00,
2013-05-15 22:14:00,51.6,51.3,29.66,NW,314,0.0,0.0,99,0.00,,,0.01,Wunderground v.1.15,2013-05-16 02:14:00,
2013-05-15 22:19:00,51.4,51.1,29.66,NW,314,0.0,0.0,99,0.00,,,0.01,Wunderground v.1.15,2013-05-16 02:19:00,
2013-05-15 22:24:00,51.4,51.1,29.66,NW,314,0.0,0.0,99,0.00,,,0.01,Wunderground v.1.15,2013-05-16 02:24:00,
2013-05-15 22:29:00,51.3,51.0,29.66,NW,314,0.0,0.0,99,0.00,,,0.01,Wunderground v.1.15,2013-05-16 02:29:00,
2013-05-15 22:35:00,51.1,50.8,29.66,NW,314,0.0,0.0,99,0.00,,,0.01,Wunderground v.1.15,2013-05-16 02:35:00,
2013-05-15 22:40:00,50.8,50.3,29.65,NW,314,0.0,0.0,98,0.00,,,0.01,Wunderground v.1.15,2013-05-16 02:40:00,
2013-05-15 22:45:00,50.4,49.9,29.65,NW,314,0.0,0.0,98,0.00,,,0.01,Wunderground v.1.15,2013-05-16 02:45:00,
2013-05-15 22:50:00,50.1,49.6,29.65,NW,314,0.0,0.0,98,0.00,,,0.01,Wunderground v.1.15,2013-05-16 02:50:00,
2013-05-15 22:55:00,50.1,49.6,29.64,NW,314,0.0,0.0,98,0.00,,,0.01,Wunderground v.1.15,2013-05-16 02:55:00,
2013-05-15 23:00:00,49.6,49.1,29.64,NW,314,0.0,0.0,98,0.00,,,0.01,Wunderground v.1.15,2013-05-16 03:00:00,
2013-05-15 23:05:00,49.2,48.7,29.64,NW,314,0.0,0.0,98,0.00,,,0.01,Wunderground v.1.15,2013-05-16 03:05:00,
2013-05-15 23:11:00,48.9,48.4,29.64,NW,314,0.0,0.0,98,0.00,,,0.01,Wunderground v.1.15,2013-05-16 03:11:00,
2013-05-15 23:16:00,48.9,48.4,29.64,NW,314,0.0,0.0,98,0.00,,,0.01,Wunderground v.1.15,2013-05-16 03:16:00,
2013-05-15 23:21:00,49.1,48.8,29.64,NW,314,0.0,0.0,99,0.00,,,0.01,Wunderground v.1.15,2013-05-16 03:21:00,
2013-05-15 23:27:00,49.1,48.8,29.63,NW,314,0.0,0.0,99,0.00,,,0.01,Wunderground v.1.15,2013-05-16 03:27:00,
2013-05-15 23:32:00,48.9,48.4,29.63,NW,314,0.0,0.0,98,0.00,,,0.01,Wunderground v.1.15,2013-05-16 03:32:00,
2013-05-15 23:37:00,48.8,48.3,29.63,NW,314,0.0,0.0,98,0.00,,,0.01,Wunderground v.1.15,2013-05-16 03:37:00,
2013-05-15 23:42:00,48.5,48.0,29.63,NW,314,0.0,0.0,98,0.00,,,0.01,Wunderground v.1.15,2013-05-16 03:42:00,
2013-05-15 23:47:00,48.0,47.5,29.63,NW,314,0.0,0.0,98,0.00,,,0.01,Wunderground v.1.15,2013-05-16 03:47:00,
2013-05-15 23:53:00,47.6,47.1,29.63,NW,314,0.0,0.0,98,0.00,,,0.01,Wunderground v.1.15,2013-05-16 03:53:00,
2013-05-15 23:58:00,47.7,47.2,29.63,NW,314,0.0,0.0,98,0.00,,,0.00,Wunderground v.1.15,2013-05-16 03:58:00,